Time,TemperatureF,DewpointF,PressureIn,WindDirection,WindDirectionDegrees,WindSpeedMPH,WindSpeedGustMPH,Humidity,HourlyPrecipIn,Conditions,Clouds,dailyrainin,SoftwareType,DateUTC
2013-08-01 00:45:00,58.6,55.1,29.95,WNW,286,2.0,2.0,88,0.00,,,0.00,Wunderground v.1.15,2013-08-01 04:45:00,
2013-08-01 01:06:00,58.4,54.9,29.94,WNW,286,0.0,0.0,88,0.00,,,0.00,Wunderground v.1.15,2013-08-01 05:06:00,
2013-08-01 01:16:00,58.3,54.4,29.95,WNW,286,0.0,0.0,87,0.00,,,0.00,Wunderground v.1.15,2013-08-01 05:16:00,
2013-08-01 01:26:00,58.1,54.2,29.95,WNW,286,0.0,0.0,87,0.00,,,0.00,Wunderground v.1.15,2013-08-01 05:26:00,
2013-08-01 02:25:00,57.0,53.5,29.95,WNW,286,0.0,0.0,88,0.00,,,0.00,Wunderground v.1.15,2013-08-01 06:25:00,
2013-08-01 02:46:00,56.3,53.4,29.94,WNW,286,1.0,2.0,90,0.00,,,0.00,Wunderground v.1.15,2013-08-01 06:46:00,
2013-08-01 02:55:00,56.3,53.4,29.94,WNW,286,2.0,2.0,90,0.00,,,0.00,Wunderground v.1.15,2013-08-01 06:55:00,
2013-08-01 03:26:00,57.0,53.5,29.93,WNW,286,0.0,0.0,88,0.00,,,0.00,Wunderground v.1.15,2013-08-01 07:26:00,
2013-08-01 03:46:00,56.3,53.4,29.92,WNW,286,0.0,2.0,90,0.00,,,0.00,Wunderground v.1.15,2013-08-01 07:46:00,
2013-08-01 04:05:00,55.7,53.4,29.92,WNW,286,0.0,0.0,92,0.00,,,0.00,Wunderground v.1.15,2013-08-01 08:05:00,
2013-08-01 04:46:00,55.6,53.3,29.92,WNW,286,0.0,0.0,92,0.00,,,0.00,Wunderground v.1.15,2013-08-01 08:46:00,
2013-08-01 05:06:00,55.6,53.6,29.92,WNW,286,0.0,0.0,93,0.00,,,0.00,Wunderground v.1.15,2013-08-01 09:06:00,
2013-08-01 05:26:00,55.1,53.1,29.92,WNW,286,0.0,0.0,93,0.00,,,0.00,Wunderground v.1.15,2013-08-01 09:26:00,
2013-08-01 06:26:00,57.5,54.9,29.93,WNW,286,0.0,0.0,91,0.00,,,0.00,Wunderground v.1.15,2013-08-01 10:26:00,
2013-08-01 07:35:00,63.1,56.5,29.92,South,181,0.0,0.0,79,0.00,,,0.00,Wunderground v.1.15,2013-08-01 11:35:00,
2013-08-01 07:45:00,63.7,56.7,29.92,South,181,0.0,0.0,78,0.00,,,0.00,Wunderground v.1.15,2013-08-01 11:45:00,
2013-08-01 08:15:00,64.3,56.9,29.92,South,181,1.0,1.0,77,0.00,,,0.00,Wunderground v.1.15,2013-08-01 12:15:00,
2013-08-01 08:35:00,66.6,58.1,29.92,SSE,155,1.0,2.0,74,0.00,,,0.00,Wunderground v.1.15,2013-08-01 12:35:00,
2013-08-01 09:46:00,72.0,60.4,29.89,East,98,2.0,2.0,67,0.00,,,0.00,Wunderground v.1.15,2013-08-01 13:46:00,
2013-08-01 10:25:00,73.7,60.3,29.88,SE,144,5.0,9.0,63,0.00,,,0.00,Wunderground v.1.15,2013-08-01 14:25:00,
2013-08-01 10:56:00,75.1,60.7,29.87,SSE,149,5.0,5.0,61,0.00,,,0.00,Wunderground v.1.15,2013-08-01 14:56:00,
2013-08-01 11:16:00,74.6,59.8,29.86,SE,138,7.0,13.0,60,0.00,,,0.00,Wunderground v.1.15,2013-08-01 15:16:00,
2013-08-01 12:35:00,74.6,59.8,29.84,SE,138,2.0,2.0,60,0.00,,,0.00,Wunderground v.1.15,2013-08-01 16:35:00,
2013-08-01 14:26:00,76.8,57.3,29.81,South,182,2.0,2.0,51,0.00,,,0.00,Wunderground v.1.15,2013-08-01 18:26:00,
2013-08-01 14:55:00,76.1,57.7,29.81,WNW,283,3.0,3.0,53,0.00,,,0.00,Wunderground v.1.15,2013-08-01 18:55:00,
2013-08-01 16:25:00,74.6,59.8,29.80,South,173,1.0,1.0,60,0.00,,,0.00,Wunderground v.1.15,2013-08-01 20:25:00,
2013-08-01 17:45:00,66.4,61.1,29.82,SSE,153,1.0,3.0,83,0.04,,,0.02,Wunderground v.1.15,2013-08-01 21:45:00,
2013-08-01 18:06:00,65.2,62.5,29.82,WNW,296,0.0,4.0,91,0.07,,,0.04,Wunderground v.1.15,2013-08-01 22:06:00,
2013-08-01 18:25:00,64.5,62.1,29.82,South,170,1.0,1.0,92,0.06,,,0.07,Wunderground v.1.15,2013-08-01 22:25:00,
2013-08-01 19:05:00,63.9,61.5,29.82,SSE,159,2.0,2.0,92,0.00,,,0.08,Wunderground v.1.15,2013-08-01 23:05:00,
2013-08-01 19:15:00,63.7,61.6,29.81,SE,132,1.0,1.0,93,0.00,,,0.08,Wunderground v.1.15,2013-08-01 23:15:00,
2013-08-01 19:25:00,63.5,62.0,29.81,SE,146,1.0,1.0,95,0.00,,,0.08,Wunderground v.1.15,2013-08-01 23:25:00,
2013-08-01 19:56:00,63.2,62.0,29.81,SE,134,2.0,2.0,96,0.00,,,0.09,Wunderground v.1.15,2013-08-01 23:56:00,
2013-08-01 20:05:00,63.2,62.3,29.81,SE,136,2.0,2.0,97,0.05,,,0.09,Wunderground v.1.15,2013-08-02 00:05:00,
2013-08-01 20:45:00,63.1,62.5,29.80,SE,144,1.0,2.0,98,0.00,,,0.10,Wunderground v.1.15,2013-08-02 00:45:00,
2013-08-01 20:56:00,63.1,62.5,29.80,SE,144,0.0,2.0,98,0.00,,,0.10,Wunderground v.1.15,2013-08-02 00:56:00,
2013-08-01 21:16:00,63.1,62.5,29.79,East,93,1.0,1.0,98,0.00,,,0.11,Wunderground v.1.15,2013-08-02 01:16:00,
2013-08-01 21:25:00,63.1,62.5,29.79,East,93,1.0,1.0,98,0.00,,,0.11,Wunderground v.1.15,2013-08-02 01:25:00,
2013-08-01 21:35:00,63.1,62.5,29.79,SE,128,1.0,5.0,98,0.00,,,0.11,Wunderground v.1.15,2013-08-02 01:35:00,
2013-08-01 21:46:00,62.9,62.3,29.78,SE,130,3.0,4.0,98,0.00,,,0.11,Wunderground v.1.15,2013-08-02 01:46:00,
2013-08-01 21:55:00,63.1,62.5,29.78,SE,146,3.0,4.0,98,0.00,,,0.11,Wunderground v.1.15,2013-08-02 01:55:00,
2013-08-01 22:15:00,62.9,62.6,29.78,SSE,162,1.0,1.0,99,0.00,,,0.11,Wunderground v.1.15,2013-08-02 02:15:00,
2013-08-01 22:36:00,63.1,62.8,29.78,South,171,1.0,1.0,99,0.00,,,0.11,Wunderground v.1.15,2013-08-02 02:36:00,
2013-08-01 22:56:00,62.7,62.4,29.77,SSE,158,1.0,3.0,99,0.07,,,0.13,Wunderground v.1.15,2013-08-02 02:56:00,
2013-08-01 23:05:00,62.7,62.4,29.77,SE,136,3.0,3.0,99,0.05,,,0.13,Wunderground v.1.15,2013-08-02 03:05:00,
2013-08-01 23:15:00,62.4,62.1,29.76,SE,136,3.0,4.0,99,0.00,,,0.13,Wunderground v.1.15,2013-08-02 03:15:00,
2013-08-01 23:25:00,62.4,62.1,29.76,SE,144,3.0,3.0,99,0.00,,,0.13,Wunderground v.1.15,2013-08-02 03:25:00,
2013-08-01 23:36:00,62.4,62.1,29.76,SSE,152,3.0,3.0,99,0.00,,,0.14,Wunderground v.1.15,2013-08-02 03:36:00,
2013-08-01 23:46:00,62.3,62.0,29.76,SE,134,2.0,4.0,99,0.04,,,0.15,Wunderground v.1.15,2013-08-02 03:46:00,
2013-08-01 23:56:00,62.3,62.0,29.76,SE,146,2.0,2.0,99,0.10,,,0.17,Wunderground v.1.15,2013-08-02 03:56:00,